QPF
0.00 0.00 0.00 0.00 0.00 0.00 0.00 0.00 0.00 0.00 0.00 0.00 0.00 0.00 0.07 0.02 0.00 0.00 0.00 0.00 0.00 0.00 0.00 0.00 0.00 0.00 0.00 0.00 0.00 0.00 0.00 0.00 0.00 0.00 0.00 0.00 0.00 0.00 0.00 0.00 0.00 0.00 0.00 0.00
0.00 0.00 0.00 0.00 0.00 0.00 0.00 0.00 0.00 0.00 0.00 0.00 0.00 0.00 0.01 0.00 0.00 0.00 0.00 0.00 0.00 0.00 0.00 0.00 0.00 0.00 0.00 0.00 0.00 0.00 0.00 0.00 0.00 0.00 0.00 0.00 0.00 0.00 0.00 0.00 0.00 0.00 0.00 0.00
0.00 0.00 0.00 0.00 0.00 0.00 0.00 0.00 0.00 0.00 0.00 0.00 0.00 0.00 0.00 0.06 0.05 0.00 0.00 0.00 0.00 0.00 0.00 0.00 0.00 0.00 0.00 0.00 0.00 0.00 0.00 0.00 0.00 0.00 0.00 0.00 0.00 0.00 0.00 0.00 0.00 0.00 0.00 0.00
0.00 0.00 0.00 0.00 0.00 0.00 0.00 0.00 0.00 0.00 0.00 0.00 0.00 0.00 0.00 0.00 0.07 0.00 0.00 0.00 0.00 0.00 0.00 0.00 0.00 0.00 0.00 0.00 0.00 0.00 0.00 0.00 0.00 0.00 0.00 0.00 0.00 0.00 0.00 0.00 0.00 0.00 0.00 0.00
0.00 0.00 0.00 0.00 0.00 0.00 0.00 0.00 0.00 0.00 0.00 0.00 0.00 0.00 0.00 0.00 0.00 0.00 0.00 0.00 0.00 0.00 0.00 0.00 0.00 0.00 0.00 0.00 0.00 0.00 0.00 0.00 0.00 0.00 0.00 0.00 0.00 0.00 0.00 0.00 0.00 0.00 0.00 0.00
0.00 0.00 0.00 0.00 0.00 0.00 0.00 0.00 0.00 0.00 0.00 0.00 0.00 0.00 0.00 0.00 0.00 0.00 0.00 0.00 0.00 0.00 0.00 0.00 0.00 0.00 0.00 0.00 0.00 0.00 0.00 0.00 0.00 0.00 0.00 0.00 0.00 0.00 0.00 0.00 0.00 0.00 0.00 0.00
0.00 0.00 0.00 0.00 0.00 0.00 0.00 0.00 0.00 0.00 0.00 0.00 0.00 0.00 0.00 0.00 0.00 0.00 0.00 0.00 0.00 0.00 0.00 0.00 0.00 0.00 0.00 0.00 0.00 0.00 0.00 0.00 0.00 0.00 0.00 0.00 0.00 0.00 0.00 0.00 0.00 0.00 0.00 0.00
0.00 0.00 0.00 0.00 0.00 0.00 0.00 0.00 0.00 0.00 0.00 0.00 0.00 0.00 0.00 0.00 0.00 0.00 0.00 0.00 0.00 0.00 0.00 0.00 0.00 0.00 0.00 0.00 0.00 0.00 0.00 0.00 0.00 0.00 0.00 0.00 0.00 0.00 0.00 0.00 0.00 0.00 0.00 0.00
0.00 0.00 0.00 0.00 0.00 0.00 0.00 0.00 0.00 0.00 0.00 0.00 0.00 0.00 0.00 0.00 0.00 0.00 0.00 0.00 0.00 0.00 0.00 0.00 0.00 0.00 0.00 0.00 0.00 0.00 0.00 0.00 0.00 0.00 0.00 0.00 0.00 0.00 0.00 0.00 0.00 0.00 0.00 0.00
0.00 0.00 0.00 0.00 0.00 0.00 0.00 0.00 0.00 0.00 0.00 0.00 0.00 0.00 0.00 0.00 0.00 0.00 0.00 0.00 0.00 0.00 0.00 0.00 0.00 0.00 0.00 0.00 0.00 0.00 0.00 0.00 0.00 0.00 0.00 0.00 0.00 0.00 0.00 0.00 0.00 0.00 0.00 0.00
0.00 0.00 0.00 0.00 0.00 0.00 0.00 0.00 0.00 0.00 0.00 0.00 0.00 0.00 0.00 0.00 0.00 0.00 0.00 0.00 0.00 0.00 0.00 0.00 0.00 0.00 0.00 0.00 0.00 0.00 0.00 0.00 0.00 0.00 0.00 0.00 0.00 0.00 0.00 0.00 0.00 0.00 0.00 0.00
0.00 0.00 0.00 0.00 0.00 0.00 0.00 0.00 0.00 0.00 0.00 0.00 0.00 0.00 0.00 0.00 0.00 0.00 0.00 0.00 0.00 0.00 0.00 0.00 0.00 0.00 0.00 0.00 0.00 0.00 0.00 0.00 0.00 0.00 0.00 0.00 0.00 0.00 0.00 0.00 0.00 0.00 0.00 0.00
0.00 0.00 0.00 0.00 0.00 0.00 0.00 0.00 0.00 0.00 0.00 0.00 0.00 0.00 0.00 0.00 0.00 0.00 0.00 0.00 0.00 0.00 0.00 0.00 0.00 0.00 0.00 0.00 0.00 0.00 0.00 0.00 0.00 0.00 0.00 0.00 0.00 0.00 0.00 0.00 0.00 0.00 0.00 0.00
0.00 0.00 0.00 0.00 0.00 0.00 0.00 0.00 0.00 0.00 0.00 0.00 0.00 0.00 0.00 0.00 0.00 0.00 0.00 0.00 0.00 0.00 0.00 0.00 0.00 0.00 0.00 0.00 0.00 0.00 0.00 0.00 0.00 0.00 0.00 0.00 0.00 0.00 0.00 0.00 0.00 0.00 0.00 0.00
0.00 0.00 0.00 0.00 0.00 0.00 0.00 0.00 0.00 0.00 0.00 0.00 0.00 0.00 0.00 0.00 0.00 0.00 0.00 0.00 0.00 0.00 0.00 0.00 0.00 0.00 0.00 0.00 0.00 0.00 0.00 0.00 0.00 0.00 0.00 0.00 0.00 0.00 0.00 0.00 0.00 0.00 0.00 0.00
0.00 0.01 0.00 0.00 0.00 0.00 0.00 0.00 0.00 0.00 0.00 0.00 0.00 0.00 0.00 0.00 0.00 0.00 0.00 0.00 0.00 0.00 0.00 0.00 0.00 0.00 0.00 0.00 0.00 0.00 0.00 0.00 0.00 0.00 0.00 0.00 0.00 0.00 0.00 0.00 0.00 0.00 0.00 0.00
0.03 0.04 0.03 0.01 0.00 0.00 0.00 0.00 0.00 0.00 0.00 0.00 0.00 0.00 0.00 0.00 0.00 0.00 0.00 0.00 0.00 0.00 0.00 0.00 0.00 0.00 0.00 0.00 0.00 0.00 0.00 0.00 0.00 0.00 0.00 0.00 0.00 0.00 0.00 0.00 0.00 0.00 0.00 0.00
0.01 0.04 0.06 0.03 0.01 0.00 0.00 0.00 0.00 0.00 0.00 0.00 0.00 0.00 0.00 0.00 0.00 0.00 0.00 0.00 0.00 0.00 0.00 0.00 0.00 0.00 0.00 0.00 0.00 0.00 0.00 0.00 0.00 0.00 0.00 0.00 0.00 0.00 0.00 0.00 0.00 0.00 0.00 0.00
0.00 0.01 0.06 0.03 0.01 0.00 0.01 0.00 0.00 0.00 0.00 0.00 0.00 0.00 0.00 0.00 0.00 0.00 0.00 0.00 0.00 0.00 0.00 0.00 0.00 0.00 0.00 0.00 0.00 0.00 0.00 0.00 0.00 0.00 0.00 0.00 0.00 0.00 0.00 0.00 0.00 0.00 0.00 0.00
0.00 0.00 0.03 0.02 0.03 0.00 0.03 0.00 0.00 0.00 0.01 0.00 0.00 0.00 0.00 0.00 0.00 0.00 0.00 0.00 0.00 0.00 0.00 0.00 0.00 0.00 0.00 0.00 0.00 0.00 0.00 0.00 0.00 0.00 0.00 0.00 0.00 0.00 0.00 0.00 0.00 0.00 0.00 0.00
0.04 0.05 0.05 0.04 0.04 0.00 0.02 0.00 0.00 0.02 0.01 0.00 0.00 0.00 0.00 0.00 0.00 0.00 0.00 0.00 0.00 0.00 0.00 0.00 0.00 0.00 0.00 0.00 0.00 0.00 0.00 0.00 0.00 0.00 0.00 0.00 0.00 0.00 0.00 0.00 0.00 0.00 0.00 0.00
0.06 0.08 0.08 0.05 0.06 0.03 0.01 0.01 0.01 0.02 0.00 0.00 0.00 0.00 0.00 0.00 0.00 0.00 0.00 0.00 0.00 0.00 0.00 0.00 0.00 0.00 0.00 0.00 0.00 0.00 0.00 0.00 0.00 0.00 0.00 0.00 0.00 0.00 0.00 0.00 0.00 0.00 0.00 0.00
0.06 0.08 0.06 0.06 0.03 0.05 0.01 0.00 0.00 0.00 0.00 0.00 0.00 0.00 0.00 0.00 0.00 0.00 0.00 0.00 0.00 0.00 0.00 0.00 0.00 0.00 0.00 0.00 0.00 0.00 0.00 0.00 0.00 0.00 0.00 0.00 0.00 0.00 0.00 0.00 0.00 0.00 0.00 0.00
0.06 0.05 0.04 0.03 0.03 0.07 0.04 0.00 0.00 0.00 0.00 0.00 0.00 0.00 0.00 0.01 0.00 0.00 0.00 0.00 0.00 0.00 0.00 0.00 0.00 0.00 0.00 0.00 0.00 0.00 0.00 0.00 0.00 0.00 0.00 0.00 0.00 0.00 0.00 0.00 0.00 0.00 0.00 0.00
0.09 0.06 0.07 0.04 0.06 0.02 0.01 0.01 0.01 0.00 0.00 0.01 0.01 0.00 0.00 0.00 0.00 0.00 0.00 0.00 0.00 0.00 0.00 0.00 0.00 0.00 0.00 0.00 0.00 0.00 0.00 0.00 0.00 0.00 0.00 0.00 0.00 0.00 0.00 0.00 0.00 0.00 0.00 0.00
0.15 0.15 0.12 0.10 0.09 0.09 0.03 0.02 0.01 0.00 0.00 0.00 0.01 0.00 0.00 0.00 0.00 0.00 0.00 0.00 0.00 0.00 0.00 0.00 0.00 0.00 0.00 0.00 0.00 0.00 0.00 0.00 0.01 0.01 0.00 0.00 0.00 0.00 0.00 0.00 0.00 0.00 0.00 0.00
MSLP
1004.99 1004.23 1002.35 1001.63 1001.48 1000.73 999.02 998.36 997.88 997.17 997.34 998.48 998.84 999.58 1000.68 1000.94 1001.58 1002.20 1003.16 1004.35 1005.23 1006.05 1007.19 1008.58 1009.42 1010.28 1011.02 1011.94 1012.93 1013.87 1014.44 1015.08 1015.85 1016.28 1016.60 1016.52 1016.48 1016.63 1016.58 1016.55 1017.01 1017.71 1017.80 1018.17
1003.60 1002.61 1002.12 1001.76 1001.18 1000.90 999.97 999.11 997.84 997.38 997.33 997.71 998.11 998.61 999.45 1000.50 1000.69 1001.17 1002.18 1003.62 1004.57 1005.49 1006.70 1007.88 1009.01 1009.78 1010.54 1011.53 1012.53 1013.56 1014.22 1014.99 1015.74 1016.00 1016.28 1016.22 1016.26 1016.38 1016.22 1016.32 1017.12 1017.53 1017.84 1018.12
1002.16 1001.49 1001.98 1001.55 1001.14 1000.72 1000.32 999.61 998.83 998.03 997.64 997.66 997.90 997.90 998.72 1001.32 1001.69 1000.95 1001.32 1002.83 1003.90 1004.75 1005.69 1007.02 1008.32 1009.09 1010.07 1010.91 1011.94 1013.06 1013.99 1014.71 1015.51 1015.62 1016.08 1016.30 1016.30 1016.18 1016.26 1016.31 1016.99 1017.31 1017.63 1017.88
1002.00 1001.51 1001.44 1001.38 1000.89 1000.83 1000.06 1000.32 999.78 998.84 998.04 997.55 998.26 997.04 997.28 1000.36 1001.49 1000.38 1000.57 1001.48 1002.80 1003.90 1005.00 1006.12 1007.30 1008.25 1009.10 1010.13 1011.38 1012.49 1013.67 1014.39 1015.17 1015.48 1015.61 1015.90 1015.82 1015.75 1015.80 1016.01 1016.29 1016.88 1017.38 1017.54
1001.40 1001.32 1001.23 1001.06 1000.76 1001.00 1000.43 1000.25 1000.14 999.89 999.02 998.04 997.13 997.39 995.66 996.70 998.11 998.50 999.70 1000.41 1001.54 1002.68 1003.78 1004.68 1005.87 1007.13 1008.10 1009.40 1010.49 1011.62 1013.00 1013.95 1014.53 1015.13 1015.10 1015.57 1015.68 1015.60 1015.73 1015.75 1016.19 1016.54 1017.22 1017.38
1001.59 1001.12 1001.04 1000.84 1001.04 1000.95 1001.19 1000.84 1000.28 1000.01 999.58 998.16 997.45 996.36 995.27 995.28 996.34 997.49 998.51 999.48 1000.49 1001.29 1002.60 1003.66 1004.93 1006.28 1007.46 1008.52 1009.64 1010.79 1012.09 1013.22 1014.08 1014.62 1015.10 1015.12 1015.40 1015.19 1015.24 1015.64 1015.84 1016.48 1016.63 1017.27
1001.76 1001.14 1000.74 1000.84 1000.46 1000.76 1000.86 1000.35 999.76 999.36 998.51 996.95 997.08 996.24 994.34 994.13 995.54 996.23 996.78 998.28 999.36 1000.34 1001.48 1002.67 1003.72 1004.96 1006.25 1007.21 1008.38 1009.52 1010.89 1012.22 1013.26 1013.91 1014.57 1014.81 1015.00 1015.39 1015.30 1015.57 1015.79 1015.90 1015.86 1016.06
1001.07 1000.15 1000.31 999.86 1000.12 999.75 1000.00 999.53 998.45 997.31 996.49 996.04 996.26 994.68 994.48 994.39 994.98 996.18 995.48 996.75 998.07 999.29 1000.33 1001.52 1002.64 1003.78 1004.99 1006.09 1007.21 1008.37 1009.64 1011.03 1012.11 1012.96 1013.70 1014.53 1014.83 1014.94 1015.32 1015.45 1015.29 1015.58 1015.31 1015.54
1002.07 1000.46 999.84 999.63 1000.14 999.92 999.10 999.19 998.73 997.41 995.80 994.83 994.11 994.61 994.54 994.55 994.69 995.89 997.23 995.74 996.46 997.87 999.15 1000.24 1001.49 1002.72 1003.82 1005.03 1006.09 1007.26 1008.49 1010.01 1011.20 1011.94 1012.84 1013.59 1014.34 1014.66 1014.58 1014.84 1015.50 1015.44 1015.39 1015.21
1004.45 1003.13 1001.22 1000.32 1000.84 1000.10 999.44 998.93 998.84 997.87 996.18 994.28 993.14 992.46 992.86 993.61 993.94 994.80 995.40 995.04 995.77 996.41 997.76 999.01 1000.12 1001.47 1002.69 1003.86 1005.12 1006.41 1007.63 1008.78 1009.80 1010.87 1011.70 1012.40 1013.20 1013.91 1014.26 1014.50 1014.85 1015.14 1015.37 1015.61
1006.41 1005.25 1002.97 1002.04 1001.35 1000.94 1000.74 999.62 998.78 997.61 997.06 995.16 993.63 992.31 992.08 992.64 993.76 994.09 994.69 995.46 995.64 995.94 996.66 997.78 998.86 1000.10 1001.55 1002.87 1004.25 1005.45 1006.67 1007.81 1009.02 1009.96 1010.68 1011.45 1012.15 1012.90 1013.60 1013.86 1014.21 1014.81 1015.17 1015.42
1007.53 1006.36 1004.49 1002.87 1001.90 1001.63 1000.87 999.70 999.41 997.96 996.91 996.01 994.51 992.80 992.06 991.96 993.09 994.16 994.75 994.88 995.45 995.68 996.00 996.62 997.40 998.94 1000.28 1001.76 1002.90 1004.17 1005.33 1006.54 1007.67 1008.60 1009.54 1010.35 1011.05 1011.72 1012.38 1012.99 1013.49 1014.06 1014.70 1015.17
1009.48 1007.98 1006.15 1004.59 1003.67 1002.47 1001.60 1000.85 999.84 998.86 997.57 995.90 995.04 993.82 993.84 993.81 993.87 994.15 994.79 995.17 995.60 995.66 995.76 996.32 996.62 997.82 999.26 1000.62 1001.86 1002.89 1004.22 1005.21 1006.41 1007.65 1008.38 1009.26 1010.03 1010.74 1011.21 1011.94 1012.61 1013.16 1013.77 1014.37
1012.19 1010.04 1007.83 1004.99 1004.08 1003.54 1001.99 1001.60 1000.57 999.55 998.12 996.93 995.60 994.73 994.42 994.84 994.90 995.33 996.24 997.06 997.26 997.52 997.38 996.92 996.55 997.54 998.77 999.87 1001.01 1002.06 1003.10 1004.12 1005.26 1006.29 1007.21 1007.98 1008.83 1009.52 1010.29 1010.95 1011.71 1012.27 1012.79 1013.44
1012.67 1011.09 1009.53 1007.74 1006.42 1005.71 1004.44 1003.22 1001.95 1001.23 1000.11 998.76 996.90 996.00 995.47 995.83 995.84 996.85 998.12 998.68 999.08 999.09 998.66 998.29 997.64 997.41 998.16 999.37 1000.34 1001.44 1002.44 1003.24 1003.99 1005.04 1005.91 1006.66 1007.66 1008.67 1009.47 1010.06 1010.66 1011.41 1012.01 1012.55
1012.76 1012.08 1011.47 1009.42 1008.55 1006.59 1005.69 1004.84 1004.22 1003.46 1002.47 1001.09 999.72 998.50 997.38 998.10 998.72 998.73 998.98 999.72 1000.29 1000.36 1000.33 1000.05 999.42 998.68 998.25 998.89 999.93 1000.75 1001.73 1002.31 1003.26 1004.00 1004.72 1005.68 1006.79 1007.76 1008.44 1009.22 1009.91 1010.56 1011.16 1011.72
1013.28 1013.23 1012.26 1010.56 1009.04 1007.37 1005.96 1005.15 1004.59 1004.18 1003.40 1002.41 1001.04 1000.26 999.62 999.76 1000.05 1000.47 1000.65 1001.36 1001.82 1002.02 1001.92 1001.71 1001.15 1000.43 999.89 999.18 999.34 1000.10 1001.11 1002.21 1002.59 1003.24 1004.23 1005.21 1006.14 1006.99 1007.68 1008.31 1008.96 1009.52 1010.16 1010.83
1012.51 1013.25 1013.69 1012.15 1009.81 1007.66 1005.32 1004.88 1004.72 1004.42 1003.57 1003.34 1002.50 1001.91 1001.32 1001.12 1001.76 1002.21 1002.27 1003.10 1003.38 1003.32 1003.30 1002.99 1002.39 1001.61 1000.85 1000.22 999.32 999.41 1000.26 1001.28 1001.99 1002.60 1003.28 1004.26 1005.16 1006.18 1007.02 1007.60 1008.06 1008.64 1009.24 1009.74
1012.09 1012.45 1013.52 1012.84 1010.54 1008.54 1006.52 1008.07 1008.04 1007.16 1005.38 1005.22 1003.47 1003.68 1002.88 1003.63 1003.88 1003.27 1003.23 1004.12 1004.57 1004.83 1004.44 1003.90 1003.27 1002.70 1001.34 1001.01 1000.27 999.46 999.43 1000.18 1001.24 1001.67 1002.28 1003.15 1004.15 1005.21 1006.11 1006.63 1007.12 1007.82 1008.44 1008.96
1012.10 1012.28 1012.64 1012.74 1011.69 1009.65 1009.69 1010.37 1010.11 1009.36 1008.00 1008.12 1007.70 1007.47 1007.30 1006.86 1005.80 1005.06 1005.27 1005.22 1005.45 1005.67 1005.38 1004.70 1003.59 1001.41 1000.91 1000.71 1000.09 999.58 998.84 999.32 999.89 1000.64 1001.41 1002.59 1003.56 1004.41 1005.14 1005.72 1006.24 1006.84 1007.55 1007.93
1014.29 1013.87 1013.46 1013.11 1012.41 1010.52 1010.08 1010.46 1011.05 1010.24 1010.53 1010.99 1011.20 1010.69 1009.88 1009.48 1009.17 1008.65 1007.28 1006.37 1006.53 1006.49 1006.20 1005.32 1004.20 1003.18 1001.72 1000.78 999.53 998.66 998.64 998.14 998.91 1000.45 1001.34 1002.18 1003.01 1003.70 1004.38 1005.15 1005.77 1006.16 1006.55 1006.96
1016.53 1015.65 1014.91 1014.35 1013.14 1011.34 1011.34 1011.32 1011.52 1011.76 1011.92 1012.31 1012.35 1012.57 1012.29 1011.72 1011.09 1010.24 1008.82 1007.42 1007.15 1007.16 1006.68 1005.73 1004.76 1003.73 1002.66 1000.96 999.50 997.86 998.09 997.91 998.90 999.88 1000.62 1001.49 1002.32 1003.05 1003.70 1004.44 1005.06 1005.66 1006.19 1006.66
1018.31 1018.75 1017.84 1015.49 1013.08 1011.94 1012.53 1012.73 1013.14 1013.02 1013.22 1013.52 1013.31 1013.21 1013.13 1012.41 1011.48 1010.62 1009.72 1008.44 1008.09 1008.01 1007.58 1006.81 1005.92 1004.65 1003.95 1002.64 1000.36 998.17 997.90 998.05 998.85 999.68 1000.34 1001.04 1001.83 1002.44 1002.74 1003.56 1004.29 1004.95 1005.59 1005.78
1019.48 1019.70 1019.01 1017.37 1014.16 1013.31 1013.68 1013.50 1014.05 1014.18 1014.25 1014.42 1014.06 1013.55 1013.44 1012.70 1011.73 1010.98 1010.42 1009.28 1008.82 1008.80 1008.32 1007.62 1006.80 1005.77 1004.89 1003.76 1002.36 1001.06 1000.34 999.00 999.25 999.71 1000.09 1000.68 1001.31 1001.89 1002.43 1002.86 1003.64 1004.08 1004.32 1004.97
1020.91 1020.71 1019.75 1018.31 1016.76 1016.14 1015.06 1015.61 1015.57 1015.28 1014.87 1014.22 1013.64 1012.92 1012.99 1012.60 1012.04 1011.32 1010.72 1010.13 1009.63 1009.44 1008.88 1008.04 1007.23 1006.57 1005.66 1004.74 1003.86 1002.93 1001.98 1000.92 999.77 999.84 999.98 1000.28 1000.77 1001.49 1002.04 1002.00 1002.42 1002.96 1003.16 1003.68
1020.87 1020.90 1020.48 1019.52 1018.95 1018.36 1017.19 1016.50 1016.08 1015.50 1014.96 1014.38 1013.35 1012.61 1012.40 1012.26 1011.90 1011.47 1010.93 1010.52 1010.16 1009.69 1009.10 1008.40 1007.77 1007.10 1006.37 1005.52 1004.96 1004.11 1003.28 1002.44 1001.30 1000.31 999.98 999.76 999.95 1000.59 1001.16 1001.59 1002.50 1003.04 1002.97 1003.82
Thickness
5756 5748 5761 5780 5786 5793 5807 5810 5810 5832 5848 5827 5825 5830 5804 5818 5834 5829 5822 5816 5816 5815 5816 5812 5810 5808 5808 5804 5798 5795 5794 5793 5788 5785 5782 5784 5786 5789 5791 5792 5789 5783 5783 5780
5751 5748 5775 5784 5787 5782 5787 5789 5804 5827 5839 5832 5828 5824 5831 5830 5835 5837 5829 5819 5817 5816 5813 5812 5809 5809 5808 5804 5801 5797 5795 5793 5789 5789 5788 5791 5792 5793 5796 5796 5791 5787 5785 5783
5746 5765 5771 5770 5771 5769 5773 5779 5790 5800 5823 5831 5825 5819 5821 5800 5814 5833 5839 5829 5824 5820 5816 5812 5809 5810 5808 5806 5803 5799 5797 5794 5791 5793 5791 5791 5794 5796 5795 5797 5794 5791 5789 5787
5743 5765 5758 5757 5759 5769 5760 5784 5786 5793 5797 5783 5815 5791 5829 5797 5772 5823 5833 5832 5828 5826 5824 5820 5814 5812 5813 5810 5807 5803 5798 5796 5793 5794 5793 5791 5792 5791 5798 5800 5802 5798 5793 5792
5733 5742 5743 5744 5757 5765 5761 5783 5777 5780 5780 5792 5805 5789 5833 5843 5814 5827 5831 5836 5836 5835 5831 5828 5825 5821 5819 5815 5811 5807 5802 5798 5798 5796 5798 5794 5793 5799 5803 5805 5801 5801 5796 5795
5729 5753 5746 5751 5757 5761 5768 5761 5767 5774 5770 5749 5785 5801 5815 5827 5829 5830 5837 5840 5839 5842 5838 5835 5832 5825 5820 5819 5815 5811 5805 5801 5799 5799 5798 5798 5796 5801 5803 5803 5803 5800 5802 5798
5711 5722 5740 5746 5739 5753 5754 5747 5728 5726 5735 5748 5794 5788 5825 5858 5846 5846 5847 5843 5846 5846 5842 5836 5832 5828 5824 5823 5822 5820 5812 5805 5804 5803 5800 5801 5802 5801 5802 5802 5803 5804 5806 5807
5696 5700 5723 5746 5733 5739 5742 5749 5739 5722 5746 5768 5795 5776 5805 5852 5853 5841 5865 5858 5854 5847 5846 5842 5839 5836 5830 5827 5826 5825 5820 5811 5810 5808 5805 5802 5803 5804 5803 5805 5809 5808 5812 5812
5687 5699 5733 5738 5739 5743 5743 5728 5770 5764 5794 5786 5804 5803 5824 5841 5841 5837 5823 5857 5854 5852 5850 5848 5845 5842 5837 5831 5830 5829 5825 5817 5814 5813 5810 5807 5805 5805 5808 5810 5807 5810 5813 5816
5672 5662 5708 5722 5719 5728 5734 5763 5731 5745 5732 5749 5796 5807 5796 5814 5825 5835 5839 5851 5857 5862 5857 5854 5851 5847 5845 5839 5834 5831 5828 5822 5820 5817 5816 5814 5812 5810 5810 5811 5810 5811 5812 5812
5653 5653 5675 5691 5686 5693 5707 5716 5729 5756 5754 5750 5763 5796 5842 5827 5825 5830 5839 5845 5854 5861 5861 5859 5858 5857 5850 5843 5836 5832 5828 5825 5821 5821 5821 5818 5817 5816 5813 5814 5815 5812 5812 5812
5636 5641 5646 5667 5699 5708 5710 5721 5725 5721 5732 5759 5778 5794 5848 5849 5839 5832 5834 5848 5854 5861 5866 5867 5866 5860 5854 5847 5842 5837 5834 5830 5828 5828 5824 5822 5822 5822 5819 5819 5819 5818 5814 5813
5608 5616 5622 5640 5661 5681 5678 5699 5715 5736 5756 5753 5754 5778 5818 5825 5825 5836 5830 5841 5847 5852 5858 5861 5866 5861 5857 5853 5848 5844 5839 5836 5833 5829 5828 5825 5824 5824 5826 5824 5823 5823 5819 5816
5572 5587 5603 5631 5653 5650 5663 5679 5703 5716 5719 5741 5759 5782 5799 5803 5810 5812 5806 5805 5810 5817 5829 5847 5861 5860 5858 5856 5850 5846 5843 5841 5837 5834 5833 5831 5829 5830 5830 5830 5827 5826 5825 5821
5553 5558 5585 5605 5619 5625 5635 5645 5666 5677 5698 5706 5750 5768 5786 5795 5801 5788 5788 5793 5795 5805 5818 5832 5847 5857 5857 5853 5852 5848 5845 5844 5843 5838 5837 5839 5837 5834 5832 5831 5831 5829 5828 5826
5539 5538 5549 5569 5587 5611 5614 5632 5640 5649 5668 5683 5706 5718 5766 5757 5754 5764 5774 5774 5776 5786 5795 5811 5826 5840 5852 5853 5851 5849 5845 5847 5844 5841 5840 5841 5837 5835 5834 5832 5831 5830 5830 5829
5523 5522 5533 5544 5576 5598 5594 5618 5633 5645 5663 5675 5683 5710 5736 5737 5739 5738 5742 5756 5760 5768 5777 5790 5805 5819 5832 5847 5852 5850 5847 5843 5844 5843 5839 5837 5835 5833 5833 5834 5833 5833 5832 5831
5528 5519 5511 5525 5560 5553 5617 5640 5638 5636 5652 5667 5682 5697 5714 5717 5714 5717 5738 5736 5741 5754 5762 5775 5789 5805 5821 5834 5849 5854 5851 5846 5844 5842 5843 5841 5838 5834 5833 5833 5835 5835 5835 5834
5538 5532 5507 5513 5543 5574 5605 5578 5583 5596 5635 5640 5667 5675 5695 5674 5691 5711 5724 5727 5729 5737 5749 5763 5777 5789 5810 5819 5834 5846 5851 5850 5844 5844 5845 5845 5842 5836 5835 5834 5836 5836 5834 5834
5541 5540 5530 5525 5521 5538 5552 5553 5562 5577 5595 5603 5610 5616 5624 5646 5666 5675 5693 5711 5717 5726 5737 5749 5767 5794 5804 5814 5828 5836 5848 5850 5849 5849 5848 5844 5841 5838 5836 5837 5836 5837 5835 5835
5510 5513 5514 5519 5517 5546 5549 5550 5552 5551 5567 5567 5573 5589 5605 5614 5632 5653 5677 5697 5705 5712 5722 5739 5757 5770 5790 5806 5826 5838 5844 5853 5857 5848 5845 5841 5840 5838 5838 5835 5834 5835 5836 5837
5492 5498 5502 5504 5504 5515 5532 5542 5535 5538 5549 5551 5562 5567 5575 5591 5607 5626 5649 5679 5691 5697 5710 5728 5742 5758 5778 5801 5817 5839 5840 5854 5851 5847 5844 5841 5840 5839 5838 5835 5835 5834 5833 5831
5484 5461 5472 5495 5513 5528 5519 5516 5518 5523 5528 5533 5546 5556 5564 5579 5597 5616 5630 5657 5673 5682 5694 5709 5724 5744 5759 5779 5805 5832 5838 5846 5844 5841 5839 5838 5837 5837 5841 5836 5833 5831 5830 5831
5468 5453 5454 5469 5507 5509 5498 5505 5500 5502 5510 5519 5532 5546 5555 5570 5589 5604 5615 5639 5656 5666 5679 5693 5709 5726 5741 5759 5779 5798 5812 5834 5835 5832 5834 5835 5833 5833 5836 5838 5835 5834 5835 5831
5445 5440 5446 5456 5474 5468 5484 5475 5476 5484 5499 5515 5528 5546 5553 5565 5577 5592 5605 5621 5639 5651 5665 5683 5696 5710 5726 5744 5758 5775 5791 5806 5822 5826 5828 5830 5832 5829 5829 5836 5838 5838 5841 5841
5435 5430 5437 5443 5437 5438 5451 5462 5468 5479 5492 5507 5524 5541 5553 5562 5569 5581 5594 5608 5624 5639 5654 5670 5685 5698 5712 5727 5739 5755 5770 5783 5800 5813 5821 5828 5831 5830 5829 5829 5828 5825 5832 5829